[[{"header":{"parameterUnit":"m.s-1","parameterCategory":1,"la1":30.2991,"la2":30.254,"lo1":-89.0895,"lo2":-89.0444,"dy":0.0017,"dx":0.0017,"nx":28,"ny":28,"refTime":"2024-07-10T09:00:00:Z","depth":0,"parameterNumber":2,"parameterNumberName":"U-component_of_WINDS"},"data":[0,0,0,0,0,0,0,0,0,0,0,0,0,0,0,0,0,0,0,0,0,0,0,0,0,0,0,0,0,0,0,0,0,0,0,0,0,0,0,0,0,0,0,0,0,0,0,0,0,0,0,0,0,0,0,0,0,0,1.2363,1.2365,0,1.2498,1.2499,1.2501,1.255,1.255,1.255,1.2549,1.2685,1.2689,1.2693,0,0,0,0,0,0,0,0,0,0,0,0,0,1.2149,1.2152,1.2363,1.2365,1.2367,1.2497,1.2499,1.2501,1.2551,1.255,1.2549,1.2549,1.2684,1.2689,1.2693,0,0,0,0,0,0,0,0,0,0,0,0,0,1.2258,1.2154,1.2363,1.2407,1.2412,1.2497,1.2499,1.2502,1.2551,1.255,1.2549,1.2549,1.2682,1.2688,1.2694,1.2744,0,0,1.2713,1.2715,0,0,0,0,0,0,0,0,1.2252,1.2266,1.2399,1.2404,1.241,1.2507,1.2474,1.2583,1.2551,1.2498,1.2549,1.2548,1.2626,1.2637,1.2663,1.2751,1.2756,1.2713,1.2717,1.2719,1.2721,0,0,0,0,0,0,0,1.2244,1.2261,1.2416,1.2401,1.2408,1.242,1.2435,1.2494,1.2564,1.2503,1.2507,1.2522,1.2629,1.2657,1.2667,1.2758,1.2713,1.2718,1.2722,1.2724,1.2894,1.2895,0,0,0,0,0,0,1.223,1.2254,1.2412,1.242,1.2328,1.2424,1.2441,1.2476,1.2564,1.2576,1.2522,1.2524,1.2647,1.266,1.2672,1.2737,1.2719,1.2725,1.2728,1.2893,1.2894,1.2895,0,0,0,0,0,0,1.2225,1.2243,1.2407,1.2338,1.236,1.2429,1.2468,1.2479,1.2508,1.2578,1.2591,1.2538,1.2647,1.2663,1.2726,1.2742,1.2728,1.2733,1.2892,1.2893,1.2895,1.2866,0,0,0,0,0,0,1.2218,1.2241,1.2261,1.2338,1.2364,1.2459,1.2469,1.2482,1.2518,1.2521,1.2597,1.2609,1.2648,1.2717,1.2732,1.275,1.2738,1.2891,1.2893,1.2894,1.2865,1.2866,1.2866,0,0,0,0,0,1.2211,1.2247,1.2262,1.2281,1.239,1.246,1.2474,1.2519,1.2519,1.254,1.2585,1.2606,1.2738,1.2723,1.274,1.276,1.289,1.2892,1.2894,1.2865,1.2866,1.2866,0,0,0,0,0,0,1.2169,1.2258,1.2275,1.2338,1.2391,1.2468,1.2495,1.2518,1.2571,1.2572,1.2625,1.2642,1.27,1.2737,1.2718,1.2814,1.2815,1.2821,1.2787,1.2788,1.2789,1.2778,1.2743,0,0,0,0,0,1.2167,1.2217,1.2292,1.234,1.2366,1.2426,1.2458,1.2488,1.2545,1.2567,1.2617,1.2671,1.2725,1.2759,1.2812,1.2871,1.2888,1.2894,1.2894,1.2894,1.2898,1.2932,1.2935,1.2902,1.2902,1.2902,0,0,1.2164,1.2219,1.2246,1.2333,1.2378,1.2427,1.2444,1.2496,1.2533,1.2575,1.2637,1.2676,1.2739,1.2801,1.283,1.2833,1.2911,1.2896,1.2896,1.29,1.2934,1.2938,1.294,1.2903,1.2903,1.2903,0,0,1.2183,1.223,1.2275,1.232,1.2387,1.2427,1.2438,1.2512,1.2539,1.2603,1.2635,1.268,1.2771,1.2815,1.285,1.2886,1.2908,1.2902,1.2904,1.2936,1.2939,1.2942,1.2955,1.2959,1.2906,1.2906,1.2906,0,1.217,1.2247,1.2295,1.2346,1.2383,1.2424,1.247,1.251,1.2591,1.2616,1.2618,1.2734,1.2779,1.2852,1.2861,1.2887,1.2901,1.2894,1.2935,1.2938,1.2941,1.2954,1.2959,1.2905,1.2905,1.2905,1.2905,0,1.2228,1.228,1.2309,1.2387,1.2427,1.2475,1.2531,1.2566,1.2593,1.2632,1.2696,1.2753,1.2818,1.2838,1.2864,1.2914,1.2914,1.2925,1.2927,1.2942,1.2955,1.2961,1.2903,1.2904,1.2904,1.2904,0,0,1.2223,1.2329,1.2338,1.2374,1.2452,1.2494,1.2544,1.2608,1.2637,1.2692,1.2735,1.2811,1.2823,1.2861,1.2893,1.2922,1.2948,1.293,1.2932,1.2931,1.3006,1.2997,1.3002,1.2963,1.2964,1.2965,1.3,0,1.2253,1.2344,1.239,1.2461,1.2511,1.2551,1.2594,1.2646,1.2685,1.2732,1.2774,1.2828,1.2838,1.2862,1.2892,1.2938,1.2963,1.2936,1.3003,1.3005,1.2985,1.3009,1.2999,1.303,1.3006,1.3007,1.3007,0,1.2299,1.2354,1.2431,1.2504,1.2526,1.2565,1.2628,1.2673,1.2733,1.2759,1.2802,1.2834,1.2888,1.2887,1.2962,1.2942,1.2972,1.2999,1.3001,1.3009,1.3006,1.3016,1.3041,1.3045,1.3016,1.3015,1.3015,0,1.2288,1.2382,1.244,1.247,1.2556,1.2582,1.2619,1.2679,1.2715,1.277,1.2794,1.2854,1.2887,1.2933,1.298,1.2975,1.305,1.3053,1.3073,1.3071,1.3086,1.3084,1.3115,1.3106,1.3106,1.3106,1.3106,0,1.2316,1.2361,1.2436,1.2472,1.2524,1.2576,1.2625,1.2666,1.2718,1.2762,1.28,1.2841,1.29,1.2948,1.2985,1.3041,1.3056,1.3078,1.3087,1.3075,1.3072,1.3095,1.3093,1.3107,1.3107,1.3107,1.3106,0,1.2312,1.2364,1.243,1.2507,1.2527,1.2562,1.2628,1.2664,1.2704,1.2759,1.2775,1.2839,1.2897,1.2949,1.3026,1.305,1.3108,1.312,1.3088,1.3093,1.3109,1.3107,1.3155,1.3164,1.3149,1.3149,1.3149,0,1.2326,1.2362,1.2443,1.2475,1.2512,1.2564,1.2601,1.2653,1.2691,1.2762,1.279,1.2851,1.2903,1.2994,1.3047,1.3106,1.3119,1.3132,1.3128,1.3114,1.3119,1.3116,1.312,1.3131,1.3131,1.3131,1.3131,0,1.2345,1.2369,1.2422,1.2484,1.2528,1.2579,1.2631,1.2655,1.2717,1.2757,1.2818,1.2858,1.2937,1.2997,1.3062,1.31,1.3126,1.3132,1.314,1.3127,1.3107,1.3118,1.3087,1.313,1.3131,1.3131,1.3131,1.3131,1.2351,1.2384,1.2447,1.2504,1.2549,1.2597,1.2635,1.2681,1.2733,1.2801,1.2829,1.289,1.295,1.3041,1.3078,1.3127,1.3132,1.3143,1.3145,1.3147,1.3145,1.3099,1.3139,1.3139,1.3139,1.3139,1.3139,0,1.2371,1.2414,1.2466,1.2539,1.2584,1.2605,1.2664,1.27,1.2754,1.2808,1.2859,1.2928,1.2987,1.3044,1.3106,1.3134,1.3147,1.3148,1.3147,1.3155,1.3137,1.3124,1.3137,1.3137,1.3137,1.3137,1.3137,1.3137,1.2388,1.2446,1.2478,1.2559,1.2602,1.2663,1.2695,1.2739,1.2782,1.2858,1.2908,1.2945,1.3001,1.3067,1.3122,1.3137,1.3158,1.3156,1.3174,1.3157,1.3156,1.3156,1.3144,1.316,1.316,1.3188,1.3188,1.3188]},{"header":{"parameterUnit":"m.s-1","parameterCategory":1,"la1":30.2991,"la2":30.254,"lo1":-89.0895,"lo2":-89.0444,"dy":0.0017,"dx":0.0017,"nx":28,"ny":28,"refTime":"2024-07-10T09:00:00:Z","depth":0,"parameterNumber":3,"parameterNumberName":"V-component_of_WINDS"},"data":[0,0,0,0,0,0,0,0,0,0,0,0,0,0,0,0,0,0,0,0,0,0,0,0,0,0,0,0,0,0,0,0,0,0,0,0,0,0,0,0,0,0,0,0,0,0,0,0,0,0,0,0,0,0,0,0,0,0,2.5996,2.5996,0,2.5937,2.5937,2.5936,2.588,2.588,2.5879,2.5878,2.5816,2.5815,2.5814,0,0,0,0,0,0,0,0,0,0,0,0,0,2.6058,2.6058,2.5996,2.5996,2.5995,2.5937,2.5937,2.5936,2.5881,2.588,2.5879,2.5878,2.5816,2.5815,2.5814,0,0,0,0,0,0,0,0,0,0,0,0,0,2.6019,2.6057,2.5997,2.596,2.5957,2.5938,2.5937,2.5936,2.5881,2.588,2.5879,2.5878,2.5817,2.5815,2.5814,2.5825,0,0,2.5809,2.5809,0,0,0,0,0,0,0,0,2.6021,2.6016,2.5967,2.5963,2.5959,2.5915,2.5936,2.5898,2.5881,2.591,2.5878,2.5877,2.585,2.5846,2.5837,2.5822,2.582,2.5809,2.5808,2.5808,2.5807,0,0,0,0,0,0,0,2.6024,2.6019,2.5973,2.5966,2.5961,2.5946,2.5939,2.5928,2.5886,2.5907,2.5903,2.5897,2.5847,2.5838,2.5835,2.5819,2.5809,2.5808,2.5807,2.5806,2.5808,2.5809,0,0,0,0,0,0,2.6032,2.6021,2.5975,2.5971,2.5988,2.5946,2.5938,2.593,2.5886,2.5878,2.5898,2.5894,2.5841,2.5837,2.5832,2.5841,2.5808,2.5806,2.5805,2.5807,2.5808,2.5809,0,0,0,0,0,0,2.6034,2.6029,2.5977,2.5995,2.5987,2.5946,2.5937,2.593,2.592,2.5879,2.5871,2.5896,2.584,2.5835,2.5827,2.5838,2.5805,2.5804,2.5806,2.5807,2.5809,2.586,0,0,0,0,0,0,2.6036,2.603,2.6034,2.5996,2.5987,2.5974,2.5938,2.5929,2.5918,2.5913,2.5876,2.5868,2.5839,2.583,2.5825,2.5836,2.5803,2.5805,2.5806,2.5808,2.5857,2.5863,2.5868,0,0,0,0,0,2.6038,2.6051,2.6035,2.603,2.5992,2.5975,2.597,2.5936,2.5919,2.5923,2.5896,2.587,2.5838,2.5829,2.5824,2.5834,2.5804,2.5806,2.5808,2.5855,2.5862,2.5868,0,0,0,0,0,0,2.6092,2.6046,2.6027,2.6028,2.6006,2.5965,2.5969,2.5945,2.5927,2.5923,2.5882,2.5874,2.587,2.5851,2.5843,2.5841,2.5817,2.5818,2.5854,2.5861,2.5866,2.587,2.5802,0,0,0,0,0,2.6104,2.6095,2.6054,2.6059,2.6049,2.6011,2.6003,2.5979,2.5954,2.5944,2.5917,2.5893,2.5877,2.5868,2.5851,2.5854,2.5844,2.5858,2.5864,2.5868,2.587,2.5868,2.5873,2.5816,2.5816,2.5816,0,0,2.6129,2.6102,2.6099,2.6069,2.6049,2.604,2.6004,2.5995,2.5987,2.5942,2.5934,2.5913,2.5883,2.588,2.5878,2.5864,2.5883,2.5871,2.5875,2.5874,2.587,2.5876,2.5881,2.5818,2.5817,2.5817,0,0,2.6169,2.6148,2.6149,2.613,2.61,2.6074,2.6075,2.6038,2.6022,2.6013,2.5978,2.5967,2.5942,2.5922,2.5908,2.5939,2.5913,2.5934,2.5963,2.5962,2.5966,2.597,2.5979,2.5984,2.5936,2.5936,2.5936,0,2.6203,2.6188,2.6153,2.6146,2.6133,2.6092,2.6092,2.6075,2.6041,2.6032,2.6018,2.5984,2.5961,2.5952,2.596,2.595,2.5948,2.5939,2.5968,2.5972,2.5975,2.5983,2.5987,2.5939,2.5939,2.5938,2.5938,0,2.6231,2.6221,2.6225,2.6194,2.6181,2.6178,2.6141,2.6132,2.6109,2.6085,2.6074,2.6045,2.6022,2.6018,2.5995,2.6005,2.5997,2.5976,2.5951,2.5984,2.5991,2.5994,2.5943,2.5942,2.5941,2.594,0,0,2.6304,2.6252,2.6254,2.6238,2.6202,2.6193,2.6187,2.6164,2.6157,2.6134,2.6127,2.6106,2.6086,2.607,2.6045,2.6044,2.6068,2.6022,2.6021,2.6031,2.6075,2.6091,2.6095,2.605,2.6051,2.6051,2.6077,0,2.6337,2.6325,2.6292,2.6289,2.6278,2.6239,2.6233,2.6209,2.6186,2.6173,2.6146,2.6131,2.6106,2.6097,2.6094,2.6066,2.6076,2.6063,2.6042,2.6042,2.605,2.6099,2.6116,2.6142,2.608,2.608,2.6081,0,2.6374,2.6354,2.6351,2.6313,2.6308,2.6303,2.6279,2.6267,2.6238,2.6221,2.6204,2.6175,2.6165,2.6141,2.6126,2.6118,2.6107,2.6092,2.6092,2.6088,2.6063,2.6096,2.6149,2.6153,2.6085,2.6085,2.6084,0,2.6426,2.6398,2.6392,2.6381,2.6337,2.6335,2.6316,2.6287,2.6275,2.6253,2.6244,2.6221,2.6208,2.6191,2.6156,2.6142,2.6143,2.6118,2.6128,2.6129,2.613,2.613,2.6182,2.6124,2.6124,2.6124,2.6124,0,2.6466,2.6465,2.6415,2.6412,2.6409,2.637,2.6368,2.6346,2.632,2.631,2.6274,2.6265,2.622,2.6205,2.6178,2.6168,2.6163,2.6148,2.614,2.6151,2.6153,2.6143,2.614,2.6125,2.6125,2.6124,2.6124,0,2.6524,2.6491,2.6481,2.6441,2.643,2.643,2.6394,2.6388,2.6362,2.635,2.6345,2.6304,2.6285,2.6248,2.6219,2.62,2.6196,2.6184,2.6206,2.6202,2.6214,2.6213,2.626,2.6264,2.6205,2.6206,2.6206,0,2.6551,2.655,2.6509,2.65,2.6483,2.6469,2.6457,2.6418,2.6406,2.6373,2.637,2.6348,2.6329,2.63,2.6266,2.6243,2.6229,2.6247,2.6226,2.6236,2.6228,2.6229,2.6228,2.6253,2.6253,2.6254,2.6255,0,2.6604,2.6587,2.657,2.6548,2.6534,2.6514,2.6492,2.6486,2.6442,2.643,2.6411,2.6396,2.6365,2.6343,2.6315,2.6294,2.6267,2.6262,2.6263,2.6273,2.6286,2.6278,2.6219,2.6261,2.626,2.626,2.6259,2.6259,2.6646,2.6643,2.6613,2.6595,2.6575,2.6555,2.6547,2.652,2.6503,2.6476,2.6454,2.6436,2.6405,2.6364,2.6345,2.6329,2.6316,2.6318,2.6318,2.6319,2.6323,2.6289,2.6324,2.6323,2.6323,2.6323,2.6323,0,2.6696,2.6675,2.6659,2.6629,2.6615,2.6591,2.6565,2.6554,2.6539,2.6514,2.6495,2.6471,2.6449,2.6414,2.6389,2.6383,2.6369,2.6377,2.6377,2.6373,2.6336,2.6338,2.6389,2.6389,2.6389,2.6389,2.6389,2.6389,2.672,2.6712,2.6691,2.6672,2.665,2.6633,2.662,2.6601,2.658,2.6556,2.6538,2.6515,2.6485,2.6457,2.6435,2.6425,2.6417,2.6429,2.6415,2.6381,2.6375,2.637,2.637,2.6428,2.6428,2.6452,2.6452,2.6453]}]]